Terminal Aerodrome Forecast
Issued by NWS

Home | Current Version | Previous Version | Text Only | Print | Product List | Glossary On
Versions: 1 2 3 4 5 6 7 8 9 10 11 12
000
FTUS45 KRIW 251700 RRA
TAFCPR
TAF
KCPR 251742Z 2518/2618 02010G20KT 1/2SM SN VV010
     FM252000 02012KT 1SM -SN OVC003
     FM260700 03008KT 3SM -SN SCT008 OVC015
     FM260900 04007KT P6SM VCSH OVC025=

USA.gov is the U.S. government's official web portal to all federal, state and local government web resources and services.